Regional Weather Roundup
Issued by NWS San Diego, CA

Home | Current Version | Previous Version | Text Only | Print | Product List | Glossary On
Versions: 1 2 3 4 5 6 7 8 9 10 11 12 13 14 15 16 17 18 19 20 21 22 23 24 25 26 27
000
ASUS46 KSGX 260311
RWRSGX

SAN DIEGO HOURLY WEATHER ROUNDUP
NATIONAL WEATHER SERVICE SAN DIEGO CA
800 PM PDT MON OCT 25 2021

NOTE: "FAIR" INDICATES FEW OR NO CLOUDS BELOW 12,000 FEET WITH NO
SIGNIFICANT WEATHER AND/OR OBSTRUCTIONS TO VISIBILITY.

CAZ042-043-060-061-PZZ750-775-260400-

GREATER SAN DIEGO AREA

CITY           SKY/WX    TMP DP  RH WIND       PRES   REMARKS
SAN DIEGO AP   CLOUDY    60  55  83 CALM      29.97R
BROWN FIELD    CLOUDY    55  52  89 CALM      29.96R
MIRAMAR MCAS   CLOUDY    54  53  97 CALM      29.95R
MONTGOMERY FLD CLOUDY    56  53  90 NE3       29.96R
GILLESPIE FLD  CLOUDY    55  52  88 CALM      29.96R
LEMON GROVE      N/A     55  53  93 CALM      29.94R

$$

NORTH SAN DIEGO COUNTY

CITY           SKY/WX    TMP DP  RH WIND       PRES   REMARKS
CAMP PENDLETON MOCLDY    61  53  75 SW3       29.94R
OCEANSIDE AP   PTCLDY    56 N/A N/A CALM      29.93R
OCEANSIDE HBR    N/A     57  55  91 CALM      30.00R
VISTA            N/A     55  49  82 CALM      29.92R
CARLSBAD       MOCLDY    56  53  90 CALM      29.93R
ENCINITAS        N/A     55  54  95 CALM        N/A
FALLBROOK      FAIR      52  50  93 CALM      29.95R
ESCONDIDO        N/A     55  52  91 CALM      29.94R
SAN MARCOS       N/A     54  51  92 CALM      29.97R
RANCHO BERNARD   N/A     53  50  88 E1        29.95R
POWAY            N/A     54  52  92 CALM      29.98R

$$

EAST SAN DIEGO COUNTY

CITY           SKY/WX    TMP DP  RH WIND       PRES   REMARKS
RAMONA         LGT RAIN  52  50  93 CALM      29.95R
SANTEE           N/A     54  52  93 CALM      29.91R
LA MESA          N/A     53  51  92 CALM      29.90R
EL CAJON         N/A     55  54  95 W3        29.84R
ALPINE           N/A     51  50  97 CALM      30.14R

$$

ORANGE COUNTY AND THE LOS ANGELES BASIN

CITY           SKY/WX    TMP DP  RH WIND       PRES   REMARKS
JOHN WAYNE AP  MOCLDY    62  55  77 SW3       29.93R
LAGUNA BEACH     N/A     59  57  94 CALM      29.93
LAKE FOREST FR   N/A     54  51  90 CALM      29.82R
SANTA ANA        N/A     58  56  94 CALM      29.92R
HUNTINGTON BCH   N/A     60  57  88 CALM      29.93R
LOS ALAMITOS   PTCLDY    57  55  93 W5        29.92R
FULLERTON      CLEAR     59  53  80 CALM      29.92R
LONG BEACH     CLEAR     60  52  74 W13       29.92R
L.A. AP        PTCLDY    60  55  83 W8        29.92R
L.A. DOWNTOWN  CLEAR     57  54  89 CALM      29.91R

$$

THE INLAND EMPIRE

CITY           SKY/WX    TMP DP  RH WIND       PRES   REMARKS
CORONA         CLOUDY    58  53  84 W10       29.92R
UPLAND AP      CLOUDY    54  54 100 W12       29.91R
CHINO          MOCLDY    56  52  86 SW8       29.93R
ONTARIO        MOCLDY    57  54  89 SW7       29.91R
SAN BERNARDINO DRIZZLE   57  50  77 SW6       29.93R
RIVERSIDE AP   MOCLDY    56  51  84 W7        29.92R
MORENO VALLEY    N/A     53  53 100 SW7       29.86R
MARCH ARB      MOCLDY    54  50  87 NW5       29.91R
HORSETHIEF CYN   N/A     53  47  78 CALM      29.90R
PERRIS           N/A     54  51  89 CALM        N/A
LAKE ELSINORE    N/A     55  49  82 CALM      29.85R
HEMET AP       CLOUDY    52 N/A N/A CALM      29.93R
FRENCH VALLEY  CLOUDY    54  50  87 S7        29.93R
TEMECULA         N/A     54  54  99 CALM      29.88R

$$

SAN BERNARDINO AND RIVERSIDE COUNTY MOUNTAINS

CITY           SKY/WX    TMP DP  RH WIND       PRES   REMARKS
BIG BEAR AP    CLOUDY    34  32  93 W12G23    29.94R WCI  25
BIG BEAR LAKE    N/A     36  33  90 CALM      29.81R
WRIGHTWOOD       N/A     37  24  58 NE1       29.74R
IDYLLWILD        N/A     40  38  94 S8        29.79R WCI  34
TORO PEAK        N/A     30  28  92 W26         N/A  WCI  15

$$

SOUTHERN DESERT INCLUDING THE COACHELLA VALLEY

CITY           SKY/WX    TMP DP  RH WIND       PRES   REMARKS
PALM SPRINGS   CLOUDY    66  43  43 W16G46    29.81R
THOUSAND PALMS   N/A     62  46  55 N15       29.79R
INDIO            N/A     64  46  51 NW7       29.82R
THERMAL        CLOUDY    65  47  52 NW14      29.81R
BORREGO AP     MOCLDY    64  43  45 NW20G33   29.85R
OCOTILLO WELLS   N/A     68  49  50 W12       29.74R
IMPERIAL AP    PTCLDY    71  53  52 W26G36    29.81R
EL CENTRO NAS  MOCLDY    71  53  52 W23G35    29.83R
YUMA AZ        CLEAR     73  51  46 NW9G18    29.78R

$$

UPPER DESERT

CITY           SKY/WX    TMP DP  RH WIND       PRES   REMARKS
VICTORVILLE AP CLEAR     48  41  76 W14       29.95R
HESPERIA         N/A     48  44  84 W7        29.71R
APPLE VALLEY     N/A     50  43  77 NE12      29.91R
PALMDALE       NOT AVBL
LANCASTER      PTCLDY    49  40  71 W21       29.92R
EDWARDS AFB    PTCLDY    50  39  66 W20       29.88R
DAGGETT        CLEAR     54  46  74 W23G33    29.85R
29 PALMS N     LGT RAIN  54  48  80 NW20G28   29.92R
29 PALMS JTNP    N/A     57  47  69 NW2       29.75R
NEEDLES        MOCLDY    69  44  40 W26G36    29.71R

$$

REGIONAL REPORTS

CITY           SKY/WX    TMP DP  RH WIND       PRES   REMARKS
SANTA BARBARA  CLEAR     58  47  66 NW8       29.93R
SANDBERG       CLOUDY    42  38  85 N13G25    29.96  FOG
LAS VEGAS NV   LGT RAIN  58  42  55 SW16G33   29.76R
PHOENIX AZ     CLEAR     81  51  35 W15       29.73R
TIJUANA        CLOUDY    55  52  88 N3        29.99

$$

OFFSHORE ISLANDS

CITY           SKY/WX    TMP DP  RH WIND       PRES   REMARKS
CATALINA ARPT  CLEAR     53  49  86 W22       29.94R
SAN CLEMENTE I CLEAR     57  54  89 NW18G25   29.97R
SAN NICOLAS IS CLEAR     55  51  86 NW23G29   29.96R

$$

MARINE AND OFFSHORE BUOY REPORTS

STATION/POSITION SKY/WX   TEMP    WIND        PRES    VSBY  SWELL
                          AIR SEA DIR/SP/G                  HT/PER/DIR
                          (F)     (DEG/KT/KT) (MB)    (MI)  (FT/S/D)
TANNER BANKS               62 64  310/ 17/ 21 1014.7R        16/310/16
S CLEMENTE BASIN           62 65  290/ 17/ 21 1014.1R        10/310/17
SAN NICOLAS IS.               62                N/A          16/310/18
SO. S. ROSA ISLA                              1015.6R
W. S. BARBARA CH           59 58  320/ 16/ 21 1014.9R        20/300/17
M. S. BARBARA CH           60 60  280/ 16/ 21 1014.5R         8/270/14
S. MONICA BASIN            62 63  280/ 19/ 23 1012.8R         3/300/17
S PEDRO CHANNEL               63                N/A           5/260/18
OCEANSIDE OFFSHR              64                N/A           3/240/18
TORREY PINES OTR              66                N/A           7/270/18
SAN DIEGO BAY                 66              1014.0R
IMPERIAL BEACH                63                N/A           5/280/18
POINT LOMA SOUTH              65                N/A           5/270/18

$$




USA.gov is the U.S. government's official web portal to all federal, state and local government web resources and services.